Regional Weather Roundup
Issued by NWS

Home | Current Version | Previous Version | Graphics & Text | Print | Product List | Glossary On
Versions: 1 2 3 4 5 6 7 8 9 10 11 12 13 14 15 16 17 18 19 20 21 22 23 24 25 26 27 28 29 30 31 32 33 34 35 36 37 38 39 40 41 42 43 44 45 46 47 48 49 50
544
ASUS43 KBIS 200002
RWRND

NORTH DAKOTA REGIONAL WEATHER ROUNDUP
NATIONAL WEATHER SERVICE BISMARCK ND
700 PM CDT TUE SEP 19 2017

NOTE: "FAIR" INDICATES FEW OR NO CLOUDS BELOW 12,000 FEET WITH NO
SIGNIFICANT WEATHER AND/OR OBSTRUCTIONS TO VISIBILITY.


NDZ001>003-009>011-017-200100-
NORTHWEST NORTH DAKOTA

CITY           SKY/WX    TMP DP  RH WIND       PRES   REMARKS
WILLISTON      LGT RAIN  58  41  53 W17G24    29.54R
6HR MIN TEMP:  58; 6HR MAX TEMP:  65; 6HR PCP: TRACE;

MINOT          CLOUDY    63  55  75 SW7       29.48R
MINOT AFB      LGT RAIN  61  54  77 W9        29.46R
$$

NDZ018>021-031>035-040>046-200100-
SOUTHWEST NORTH DAKOTA

CITY           SKY/WX    TMP DP  RH WIND       PRES   REMARKS
BISMARCK       CLOUDY    64  47  53 W17       29.52R
6HR MIN TEMP:  64; 6HR MAX TEMP:  76; 6HR PCP: TRACE;

DICKINSON      LGT RAIN  52  50  93 W14       29.60R
GARRISON         N/A     59  55  87 W16       29.52R
6HR MIN TEMP:  59; 6HR MAX TEMP:  69;

HETTINGER ARPT CLOUDY    51  48  89 W12       29.63R
$$

NDZ004>008-012>016-024-026-027-054-200100-
NORTHEAST NORTH DAKOTA

CITY           SKY/WX    TMP DP  RH WIND       PRES   REMARKS
GRAND FORKS    TSTM      67  66  97 E26       29.46F
GRND FRKS AFB  PTCLDY    67  65  95 E20G28    29.42F THUNDER
DEVILS LAKE    LGT RAIN  65  63  93 SE13      29.44F
$$

NDZ022-023-025-028>030-036>039-047>053-200100-
SOUTHEAST NORTH DAKOTA

CITY           SKY/WX    TMP DP  RH WIND       PRES   REMARKS
FARGO          TSTM      71  66  84 SE10G18   29.44R
6HR MIN TEMP:  71; 6HR MAX TEMP:  78; 6HR PCP:  0.10;

JAMESTOWN      CLOUDY    65  61  87 SE13      29.43S
$$





USA.gov is the U.S. government's official web portal to all federal, state and local government web resources and services.